Flag for Romania Weather past 2 weeks in Brăila, Romania

Now
79 °F

Sunny.


Feels Like: 80 °F
Forecast: 62 / 96 °F
Wind: 3 mph from North

Location: Galati

Current Time: Aug 3, 2015 at 11:40:06 AM

Latest Report: Aug 3, 2015 at 11:00 AM


Visibility: 13 mi

Pressure: 30.13 "Hg

Humidity: 48%

Dew point: 58 °F

Location of BrăilaLocation

Historic Weather in Brăila — Graph

°F

Brăila temperature yesterday

Maximum temperature yesterday: 88 °F (at 4:00 PM)
Minimum temperature yesterday: 65 °F (at 5:00 AM)
Average temperature yesterday: 77 °F

Past Weeks' High & Low Weather Summary

 TemperatureHumidityPressure
High98 °F (Jul 26, 5:00 PM)92% (Jul 31, 5:00 AM)30.21 "Hg (Jul 31, 5:00 AM)
Low62 °F (Aug 3, 7:00 AM)21% (Jul 26, 6:00 PM)29.65 "Hg (Jul 26, 7:00 PM)
Average80 °F52%29.90 "Hg
* Reported Jul 19 10:00 AM — Aug 3 10:00 AM, Brăila, Weather by CustomWeather, © 2015

Note: Actual official high and low records may vary slightly from our data, if they occured in-between our weather recording intervals... More about our weather records

Advertising

Brăila weather history for previous 24 hours

 ConditionsComfort  
Time TempWeatherWind HumidityBarometerVisibility
10:00 AM
Mon, Aug 3
74 °FSunny.3 mph54%30.14 "Hg12 mi
9:00 AM70 °FSunny.2 mph61%30.14 "Hg12 mi
8:00 AM67 °FSunny.2 mph61%30.14 "Hg12 mi
7:00 AM62 °FSunny.2 mph73%30.15 "Hg12 mi
5:00 AM66 °FClear.2 mph58%30.15 "Hg12 mi
4:00 AM67 °FClear.1 mph58%30.15 "Hg12 mi
3:00 AM68 °FClear.1 mph56%30.16 "Hg12 mi
2:00 AM67 °FClear.1 mph64%30.17 "Hg12 mi
11:00 PM
Sun, Aug 2
72 °FClear.1 mph60%30.17 "Hg12 mi
10:00 PM75 °FClear.1 mph55%30.16 "Hg12 mi
9:00 PM77 °FClear.1 mph49%30.15 "Hg12 mi
8:00 PM80 °FSunny.2 mph43%30.15 "Hg12 mi
7:00 PM83 °FSunny.3 mph39%30.16 "Hg12 mi
6:00 PM85 °FSunny.3 mph36%30.16 "Hg12 mi
5:00 PM87 °FSunny.2 mph27%30.16 "Hg12 mi
4:00 PM88 °FSunny.2 mph23%30.17 "Hg12 mi
3:00 PM87 °FSunny.2 mph25%30.18 "Hg12 mi
2:00 PM85 °FSunny.2 mph28%30.19 "Hg12 mi
1:00 PM84 °FSunny.2 mph29%30.19 "Hg12 mi
12:00 PM82 °FPassing clouds.2 mph32%30.20 "Hg12 mi
11:00 AM78 °FPassing clouds.3 mph46%30.21 "Hg12 mi
Weather by CustomWeather, © 2015

See weather overviewHow to use our weather pages